Regional Weather Roundup
Issued by NWS

Home | Current Version | Previous Version | Graphics & Text | Print | Product List | Glossary On
Versions: 1 2 3 4 5 6 7 8 9 10 11 12 13 14 15 16 17 18 19 20 21 22 23 24 25 26 27 28 29 30 31 32 33 34 35 36 37 38 39 40 41 42 43 44 45 46 47 48 49 50
000
ASUS43 KBIS 182020
RWRND

NORTH DAKOTA REGIONAL WEATHER ROUNDUP
NATIONAL WEATHER SERVICE BISMARCK ND
300 PM CDT THU SEP 18 2014

NOTE: "FAIR" INDICATES FEW OR NO CLOUDS BELOW 12,000 FEET WITH NO
SIGNIFICANT WEATHER AND/OR OBSTRUCTIONS TO VISIBILITY.


NDZ001>003-009>011-017-182100-
NORTHWEST NORTH DAKOTA

CITY           SKY/WX    TMP DP  RH WIND       PRES   REMARKS
WILLISTON      PTSUNNY   82  55  39 S9        29.64F
MINOT          CLOUDY    78  59  51 S15G23    29.67F
MINOT AFB      CLOUDY    77  61  57 S20G26    29.66F
$$

NDZ018>021-031>035-040>046-182100-
SOUTHWEST NORTH DAKOTA

CITY           SKY/WX    TMP DP  RH WIND       PRES   REMARKS
BISMARCK       PTSUNNY   82  61  48 S18G26    29.75F
DICKINSON      PTSUNNY   77  58  51 S15       29.72F
GARRISON         N/A     76  63  64 S15G22    29.71F
HETTINGER ARPT PTSUNNY   77  59  53 S13       29.78F
$$

NDZ004>008-012>016-024-026-027-054-182100-
NORTHEAST NORTH DAKOTA

CITY           SKY/WX    TMP DP  RH WIND       PRES   REMARKS
GRAND FORKS    MOSUNNY   72  56  57 S15G24    29.85F
GRND FRKS AFB  SUNNY     70  58  64 S17       29.85F
DEVILS LAKE    SUNNY     73  55  53 S20       29.76F
$$

NDZ022-023-025-028>030-036>039-047>053-182100-
SOUTHEAST NORTH DAKOTA

CITY           SKY/WX    TMP DP  RH WIND       PRES   REMARKS
FARGO          SUNNY     72  57  59 S17G24    29.88F
JAMESTOWN      SUNNY     76  59  55 S16G28    29.81F
$$




USA.gov is the U.S. government's official web portal to all federal, state and local government web resources and services.